• In Russia
  • List of Countries
  • For 7 days
  • Water Temperature
  • Weather Map
  • Weather Widgets
  • user-avatar
    Login

    Hourly Weather Edmonton

    Today, 31 May, Sunday

    Time Temperature Precipitation Wind Pressure Humidity
    00:00 +17°C° 0 mm 7 mps 694 mmHg 69%
    01:00 +16°C° 0 mm 6 mps 693 mmHg 71%
    02:00 +16°C° 0.1 mm 7 mps 692 mmHg 74%
    03:00 +16°C° 0.1 mm 7 mps 691 mmHg 76%
    04:00 +16°C° 0.1 mm 8 mps 691 mmHg 79%
    05:00 +16°C° 0 mm 7 mps 691 mmHg 79%
    06:00 +17°C° 0 mm 7 mps 690 mmHg 79%
    07:00 +19°C° 0 mm 6 mps 690 mmHg 80%
    08:00 +20°C° 0 mm 6 mps 690 mmHg 76%
    09:00 +22°C° 0 mm 6 mps 690 mmHg 72%
    10:00 +23°C° 0 mm 6 mps 691 mmHg 68%
    11:00 +23°C° 0 mm 6 mps 690 mmHg 69%
    12:00 +23°C° 0 mm 5 mps 690 mmHg 69%
    13:00 +23°C° 0 mm 5 mps 690 mmHg 69%
    14:00 +22°C° 0.2 mm 6 mps 690 mmHg 72%
    15:00 +21°C° 0.2 mm 7 mps 689 mmHg 76%
    16:00 +18°C° 0.2 mm 8 mps 689 mmHg 79%
    17:00 +17°C° 1 mm 9 mps 689 mmHg 82%
    18:00 +14°C° 1 mm 10 mps 689 mmHg 85%
    19:00 +13°C° 1 mm 11 mps 689 mmHg 88%
    20:00 +12°C° 1.6 mm 11 mps 689 mmHg 86%
    21:00 +12°C° 1.6 mm 10 mps 689 mmHg 85%
    22:00 +12°C° 1.6 mm 10 mps 690 mmHg 84%
    23:00 +12°C° 0.6 mm 9 mps 691 mmHg 82%

    Tomorrow, 1 June, Monday

    Time Temperature Precipitation Wind Pressure Humidity
    00:00 +12°C° 0.6 mm 9 mps 692 mmHg 79%
    01:00 +12°C° 0.6 mm 8 mps 693 mmHg 77%
    02:00 +11°C° 0 mm 8 mps 693 mmHg 72%
    03:00 +11°C° 0 mm 8 mps 694 mmHg 67%
    04:00 +10°C° 0 mm 8 mps 694 mmHg 63%
    05:00 +11°C° 0 mm 8 mps 695 mmHg 61%
    06:00 +12°C° 0 mm 9 mps 696 mmHg 59%
    07:00 +13°C° 0 mm 9 mps 696 mmHg 57%
    08:00 +15°C° 0 mm 9 mps 697 mmHg 55%
    09:00 +16°C° 0 mm 8 mps 697 mmHg 53%
    10:00 +17°C° 0 mm 8 mps 697 mmHg 51%
    11:00 +17°C° 0 mm 8 mps 697 mmHg 51%
    12:00 +18°C° 0 mm 7 mps 697 mmHg 50%
    13:00 +19°C° 0 mm 6 mps 697 mmHg 50%
    14:00 +19°C° 0 mm 6 mps 697 mmHg 50%
    15:00 +19°C° 0 mm 5 mps 697 mmHg 49%
    16:00 +19°C° 0 mm 4 mps 697 mmHg 49%
    17:00 +18°C° 0 mm 3 mps 697 mmHg 54%
    18:00 +17°C° 0 mm 2 mps 698 mmHg 58%
    19:00 +16°C° 0 mm 1 mps 698 mmHg 63%
    20:00 +15°C° 0 mm 2 mps 698 mmHg 67%
    21:00 +13°C° 0 mm 2 mps 698 mmHg 71%
    22:00 +11°C° 0 mm 3 mps 699 mmHg 75%
    23:00 +10°C° 0 mm 3 mps 699 mmHg 78%

    Day after tomorrow, 2 June, Tuesday

    Time Temperature Precipitation Wind Pressure Humidity
    00:00 +9°C° 0 mm 3 mps 699 mmHg 81%
    01:00 +9°C° 0 mm 3 mps 699 mmHg 84%
    02:00 +8°C° 0 mm 3 mps 699 mmHg 81%
    03:00 +8°C° 0 mm 3 mps 699 mmHg 77%
    04:00 +8°C° 0 mm 3 mps 699 mmHg 74%
    05:00 +9°C° 0 mm 3 mps 700 mmHg 70%
    06:00 +11°C° 0 mm 4 mps 700 mmHg 67%
    07:00 +13°C° 0 mm 4 mps 700 mmHg 63%
    08:00 +15°C° 0 mm 4 mps 700 mmHg 57%
    09:00 +17°C° 0 mm 4 mps 700 mmHg 51%
    10:00 +19°C° 0 mm 4 mps 700 mmHg 46%
    11:00 +19°C° 0 mm 4 mps 700 mmHg 45%
    12:00 +20°C° 0 mm 4 mps 700 mmHg 45%
    13:00 +20°C° 0 mm 4 mps 700 mmHg 45%
    14:00 +20°C° 0 mm 3 mps 700 mmHg 47%
    15:00 +20°C° 0 mm 3 mps 699 mmHg 49%
    16:00 +20°C° 0 mm 3 mps 699 mmHg 51%
    17:00 +19°C° 0.1 mm 2 mps 699 mmHg 57%
    18:00 +18°C° 0.1 mm 2 mps 698 mmHg 64%
    19:00 +16°C° 0.1 mm 2 mps 698 mmHg 70%
    20:00 +15°C° 1.5 mm 2 mps 697 mmHg 76%
    21:00 +13°C° 1.5 mm 3 mps 697 mmHg 82%
    22:00 +12°C° 1.5 mm 3 mps 696 mmHg 88%
    23:00 +11°C° 0.7 mm 3 mps 696 mmHg 89%

    3 June, Wednesday

    Time Temperature Precipitation Wind Pressure Humidity
    00:00 +11°C° 0.7 mm 3 mps 696 mmHg 90%
    01:00 +10°C° 0.7 mm 3 mps 696 mmHg 91%
    02:00 +10°C° 0.2 mm 4 mps 696 mmHg 90%
    03:00 +8°C° 0.2 mm 6 mps 697 mmHg 89%
    04:00 +8°C° 0.2 mm 7 mps 697 mmHg 88%
    05:00 +8°C° 0 mm 7 mps 697 mmHg 82%
    06:00 +9°C° 0 mm 8 mps 698 mmHg 77%
    07:00 +8°C° 0 mm 9 mps 698 mmHg 71%
    08:00 +10°C° 0 mm 8 mps 698 mmHg 64%
    09:00 +11°C° 0 mm 8 mps 698 mmHg 57%
    10:00 +13°C° 0 mm 8 mps 698 mmHg 50%
    11:00 +13°C° 0 mm 8 mps 699 mmHg 50%
    12:00 +13°C° 0 mm 8 mps 699 mmHg 50%
    13:00 +15°C° 0 mm 9 mps 699 mmHg 51%
    14:00 +12°C° 0.1 mm 9 mps 699 mmHg 58%
    15:00 +10°C° 0.1 mm 9 mps 699 mmHg 66%
    16:00 +7°C° 0.1 mm 9 mps 699 mmHg 74%
    17:00 +7°C° 0 mm 8 mps 699 mmHg 77%
    18:00 +8°C° 0 mm 7 mps 699 mmHg 79%
    19:00 +8°C° 0 mm 7 mps 699 mmHg 81%
    20:00 +8°C° 0.2 mm 6 mps 699 mmHg 83%
    21:00 +8°C° 0.2 mm 6 mps 699 mmHg 84%
    22:00 +8°C° 0.2 mm 5 mps 700 mmHg 86%
    23:00 +8°C° 0.2 mm 5 mps 699 mmHg 87%

    4 June, Thursday

    Time Temperature Precipitation Wind Pressure Humidity
    00:00 +7°C° 0.2 mm 5 mps 699 mmHg 89%
    01:00 +7°C° 0.2 mm 5 mps 699 mmHg 90%
    02:00 +7°C° 0.4 mm 5 mps 699 mmHg 91%
    03:00 +7°C° 0.4 mm 5 mps 700 mmHg 91%
    04:00 +7°C° 0.4 mm 5 mps 700 mmHg 92%
    05:00 +7°C° 0.5 mm 5 mps 700 mmHg 93%
    06:00 +7°C° 0.5 mm 5 mps 700 mmHg 93%
    07:00 +7°C° 0.5 mm 4 mps 700 mmHg 94%
    08:00 +8°C° 0.4 mm 4 mps 700 mmHg 90%
    09:00 +8°C° 0.4 mm 4 mps 701 mmHg 86%
    10:00 +10°C° 0.4 mm 3 mps 701 mmHg 82%
    11:00 +10°C° 0.1 mm 3 mps 701 mmHg 77%
    12:00 +11°C° 0.1 mm 3 mps 701 mmHg 71%
    13:00 +12°C° 0.1 mm 3 mps 702 mmHg 66%
    14:00 +13°C° 0 mm 3 mps 702 mmHg 64%
    15:00 +13°C° 0 mm 3 mps 702 mmHg 62%
    16:00 +14°C° 0 mm 2 mps 702 mmHg 60%
    17:00 +13°C° 0 mm 2 mps 702 mmHg 66%
    18:00 +12°C° 0 mm 2 mps 702 mmHg 73%
    19:00 +10°C° 0 mm 2 mps 702 mmHg 79%
    20:00 +8°C° 0 mm 2 mps 703 mmHg 83%
    21:00 +7°C° 0 mm 2 mps 703 mmHg 87%
    22:00 +6°C° 0 mm 2 mps 703 mmHg 91%
    23:00 +5°C° 0 mm 2 mps 703 mmHg 92%

    5 June, Friday

    Time Temperature Precipitation Wind Pressure Humidity
    00:00 +5°C° 0 mm 2 mps 703 mmHg 93%
    01:00 +5°C° 0 mm 2 mps 703 mmHg 93%
    02:00 +5°C° 0 mm 2 mps 703 mmHg 94%
    03:00 +5°C° 0 mm 2 mps 703 mmHg 95%
    04:00 +5°C° 0 mm 2 mps 703 mmHg 95%
    05:00 +5°C° 0 mm 3 mps 703 mmHg 91%
    06:00 +8°C° 0 mm 3 mps 703 mmHg 87%
    07:00 +10°C° 0 mm 4 mps 703 mmHg 83%
    08:00 +11°C° 0 mm 4 mps 703 mmHg 80%
    09:00 +12°C° 0 mm 5 mps 703 mmHg 78%
    10:00 +13°C° 0 mm 5 mps 702 mmHg 76%
    11:00 +14°C° 0 mm 5 mps 702 mmHg 74%
    12:00 +14°C° 0 mm 5 mps 702 mmHg 72%
    13:00 +15°C° 0 mm 4 mps 701 mmHg 71%
    14:00 +15°C° 0 mm 4 mps 701 mmHg 72%
    15:00 +15°C° 0 mm 5 mps 701 mmHg 73%
    16:00 +14°C° 0 mm 5 mps 700 mmHg 75%
    17:00 +13°C° 0 mm 4 mps 700 mmHg 78%
    18:00 +13°C° 0 mm 3 mps 700 mmHg 81%
    19:00 +12°C° 0 mm 3 mps 699 mmHg 85%
    20:00 +11°C° 0 mm 3 mps 699 mmHg 87%
    21:00 +10°C° 0 mm 3 mps 699 mmHg 89%
    22:00 +9°C° 0 mm 3 mps 699 mmHg 91%
    23:00 +9°C° 0 mm 3 mps 699 mmHg 91%
    Show more